K5SVV Weather Reports


Display with metric or nautical units.
time (UTC)temp
F
wind
direction
speed
MPH
gust
MPH
rain 1hr
in
rain 24hr
in
rain mn
in
humidity
%
barometer
mb
20260506215044 60 334 3.0 3.0 0.00 0.00 0.00 83 1012.5
20260506214541 60 306 5.0 7.0 0.00 0.00 0.00 82 1012.3
20260506214039 60 309 4.0 6.0 0.00 0.00 0.00 82 1012.1
20260506213537 60 331 5.0 6.0 0.00 0.00 0.00 82 1012.1
20260506213033 60 325 7.0 8.0 0.00 0.00 0.00 82 1012.2
20260506212530 60 344 6.0 7.0 0.00 0.00 0.00 82 1012.4
20260506212025 60 352 7.0 9.0 0.00 0.00 0.00 82 1012.2
20260506211521 60 8 3.0 7.0 0.00 0.00 0.00 82 1012.3
20260506211019 60 339 0.0 0.0 0.00 0.00 0.00 82 1012.5
20260506210515 60 18 9.0 10.0 0.00 0.00 0.00 83 1012.2
20260506210012 59 314 7.0 9.0 0.00 0.00 0.00 82 1012.1
20260506205508 60 10 10.0 11.0 0.00 0.00 0.00 82 1012.1
20260506205004 59 18 8.0 8.0 0.00 0.00 0.00 83 1012.2
20260506204502 59 299 7.0 9.0 0.00 0.00 0.00 84 1012.4
20260506203959 59 358 12.0 14.0 0.00 0.00 0.00 83 1012.7
20260506203457 59 350 7.0 9.0 0.00 0.00 0.00 84 1012.4
20260506202953 58 352 7.0 9.0 0.00 0.00 0.00 84 1012.5
20260506202451 58 323 10.0 11.0 0.00 0.00 0.00 84 1012.8
20260506201947 58 343 6.0 7.0 0.00 0.00 0.00 85 1012.8
20260506201444 58 14 6.0 7.0 0.00 0.00 0.00 85 1012.9
20260506200941 57 353 1.0 4.0 0.00 0.00 0.00 86 1013.2
20260506200437 57 354 6.0 8.0 0.00 0.00 0.00 87 1013.2
20260506195933 57 339 4.0 7.0 0.00 0.00 0.00 87 1013.5
20260506195431 57 0 7.0 7.0 0.00 0.00 0.00 87 1013.2
20260506194927 57 320 9.0 10.0 0.00 0.00 0.00 88 1013.4
20260506194424 56 321 0.0 1.0 0.00 0.00 0.00 89 1013.3
20260506193921 56 340 6.0 8.0 0.00 0.00 0.00 89 1013.2
20260506193418 56 341 6.0 7.0 0.00 0.00 0.00 90 1013.2
20260506192915 56 358 0.0 1.0 0.00 0.00 0.00 89 1013.4
20260506192412 56 334 6.0 8.0 0.00 0.00 0.00 89 1013.2
20260506191909 56 329 9.0 9.0 0.00 0.00 0.00 88 1013.4
20260506191405 56 334 6.0 9.0 0.00 0.00 0.00 88 1013.2
20260506190902 56 346 4.0 8.0 0.00 0.00 0.00 88 1013.3
20260506190358 56 327 8.0 11.0 0.00 0.00 0.00 88 1013.4
20260506185855 57 341 4.0 4.0 0.00 0.00 0.00 87 1013.7
20260506185352 57 5 7.0 8.0 0.00 0.00 0.00 87 1013.6
20260506184849 56 307 2.0 6.0 0.00 0.00 0.00 87 1013.6
20260506184346 57 337 6.0 8.0 0.00 0.00 0.00 86 1013.5
20260506183843 57 345 5.0 8.0 0.00 0.00 0.00 87 1013.5
20260506183339 57 329 2.0 4.0 0.00 0.00 0.00 87 1013.3
20260506182836 57 352 7.0 8.0 0.00 0.00 0.00 87 1013.2
20260506182333 57 334 9.0 10.0 0.00 0.00 0.00 87 1013.0
20260506181831 56 337 9.0 10.0 0.00 0.00 0.00 88 1013.0
20260506181329 56 355 2.0 4.0 0.00 0.00 0.00 88 1013.3
20260506180826 56 329 4.0 4.0 0.00 0.00 0.00 88 1013.1
20260506180321 56 0 0.0 0.0 0.00 0.00 0.00 88 1013.3
20260506175818 56 53 0.0 0.0 0.00 0.00 0.00 87 1013.5
20260506175315 57 10 2.0 6.0 0.00 0.00 0.00 87 1013.4
20260506174812 57 9 0.0 0.0 0.00 0.00 0.00 87 1013.0
20260506174310 57 19 11.0 14.0 0.00 0.00 0.00 86 1012.0
20260506173807 58 333 11.0 14.0 0.00 0.00 0.00 86 1011.6
20260506173303 57 345 11.0 13.0 0.00 0.00 0.00 86 1011.3
20260506172801 57 12 9.0 13.0 0.00 0.00 0.00 88 1011.1
20260506172257 56 11 11.0 14.0 0.00 0.00 0.00 88 1011.6
20260506171755 56 358 10.0 16.0 0.00 0.00 0.00 88 1011.6
20260506171252 57 354 9.0 11.0 0.00 0.00 0.00 87 1012.2
20260506170749 57 356 7.0 8.0 0.00 0.00 0.00 87 1012.4
20260506170245 57 29 1.0 4.0 0.00 0.00 0.00 87 1012.7
20260506165744 57 358 2.0 6.0 0.00 0.00 0.00 87 1012.6
20260506165241 56 357 9.0 10.0 0.00 0.00 0.00 86 1013.3
20260506164738 57 12 6.0 7.0 0.00 0.00 0.00 86 1013.6
20260506164235 56 2 0.0 0.0 0.00 0.00 0.00 87 1013.5
20260506163732 56 5 6.0 6.0 0.00 0.00 0.00 86 1013.3
20260506163226 56 8 4.0 7.0 0.00 0.00 0.00 86 1013.1
20260506162723 55 23 3.0 8.0 0.00 0.00 0.00 87 1012.9
20260506162220 55 358 10.0 11.0 0.00 0.00 0.00 87 1012.4
20260506161712 55 335 9.0 11.0 0.00 0.00 0.00 87 1012.0
20260506161209 55 19 8.0 9.0 0.00 0.00 0.00 88 1012.1
20260506160707 55 13 10.0 13.0 0.00 0.00 0.00 88 1012.5
20260506160203 55 358 9.0 10.0 0.00 0.00 0.00 88 1012.5
20260506155701 55 5 8.0 9.0 0.00 0.00 0.00 88 1012.8
20260506155158 54 359 5.0 9.0 0.00 0.00 0.00 89 1012.8
20260506153300 54 23 7.0 8.0 0.00 0.00 0.00 89 1012.9
20260506152757 54 10 8.0 10.0 0.00 0.00 0.00 89 1012.8
20260506152254 54 343 10.0 11.0 0.00 0.00 0.00 89 1013.2
20260506151753 54 4 8.0 11.0 0.00 0.00 0.00 89 1013.3
20260506151249 54 316 4.0 6.0 0.00 0.00 0.00 88 1013.8
20260506150746 54 316 3.0 7.0 0.00 0.00 0.00 88 1014.0
20260506150243 54 350 10.0 11.0 0.00 0.00 0.00 87 1013.7
20260506145740 54 17 11.0 13.0 0.00 0.00 0.00 87 1013.8
20260506145236 54 324 9.0 11.0 0.00 0.00 0.00 87 1014.5
20260506144734 54 355 9.0 10.0 0.00 0.00 0.00 87 1013.7
20260506144231 55 317 11.0 13.0 0.00 0.00 0.00 86 1013.5
20260506143728 55 329 0.0 0.0 0.00 0.00 0.00 85 1013.4
20260506143226 55 329 8.0 9.0 0.00 0.00 0.00 85 1013.3
20260506142724 55 11 9.0 14.0 0.00 0.00 0.00 85 1013.0
20260506142222 55 343 12.0 16.0 0.00 0.00 0.00 85 1013.0
20260506141720 55 349 8.0 9.0 0.00 0.00 0.00 85 1012.8
20260506141218 55 347 7.0 8.0 0.00 0.00 0.00 85 1012.5
20260506140715 55 336 8.0 9.0 0.00 0.00 0.00 85 1012.6
20260506140212 55 28 9.0 10.0 0.00 0.00 0.00 85 1012.3
20260506135708 55 337 10.0 13.0 0.00 0.00 0.00 85 1012.3
20260506135205 55 358 8.0 9.0 0.00 0.00 0.00 85 1012.8
20260506134702 55 7 11.0 14.0 0.00 0.00 0.00 85 1012.7
20260506134158 55 9 11.0 14.0 0.00 0.00 0.00 84 1012.2
20260506133655 55 6 12.0 14.0 0.00 0.00 0.00 84 1012.1
20260506133151 55 10 6.0 7.0 0.00 0.00 0.00 84 1012.4
20260506132649 55 351 11.0 13.0 0.00 0.00 0.00 84 1012.1
20260506132146 56 4 11.0 13.0 0.00 0.00 0.00 84 1012.1
20260506131644 56 321 7.0 8.0 0.00 0.00 0.00 84 1011.9
20260506131139 55 353 10.0 14.0 0.00 0.00 0.00 84 1012.0
20260506130636 56 6 10.0 14.0 0.00 0.00 0.00 84 1011.8
20260506130134 56 18 11.0 11.0 0.00 0.00 0.00 83 1011.7
20260506125632 56 345 7.0 9.0 0.00 0.00 0.00 84 1011.8
20260506125129 56 352 9.0 9.0 0.00 0.00 0.00 84 1011.7
20260506124627 56 355 9.0 11.0 0.00 0.00 0.00 84 1011.5
20260506124125 56 359 8.0 9.0 0.00 0.00 0.00 84 1011.6
20260506123622 56 18 11.0 13.0 0.00 0.00 0.00 84 1011.5
20260506123121 56 336 8.0 10.0 0.00 0.00 0.00 84 1011.5
20260506122617 56 334 4.0 6.0 0.00 0.00 0.00 84 1011.4
20260506122115 56 354 9.0 11.0 0.00 0.00 0.00 84 1011.3
20260506121612 56 324 8.0 10.0 0.00 0.00 0.00 84 1011.4
20260506121109 57 318 10.0 11.0 0.00 0.00 0.00 84 1011.3
20260506120607 57 352 11.0 13.0 0.00 0.00 0.00 84 1011.1
20260506120104 57 347 7.0 8.0 0.00 0.00 0.00 84 1011.3
20260506115602 57 12 6.0 10.0 0.00 0.00 0.00 85 1011.1
20260506115100 57 348 3.0 6.0 0.00 0.00 0.00 85 1011.0
20260506114557 57 341 4.0 6.0 0.00 0.00 0.00 85 1010.8
20260506114055 57 357 11.0 13.0 0.00 0.00 0.00 85 1010.9
20260506113553 57 352 11.0 13.0 0.00 0.00 0.00 85 1010.5
20260506113050 57 327 7.0 8.0 0.00 0.00 0.00 85 1010.6
20260506112546 57 7 8.0 9.0 0.00 0.00 0.00 84 1010.6
20260506112044 57 6 6.0 10.0 0.00 0.00 0.00 84 1010.6
20260506111542 57 11 7.0 9.0 0.00 0.00 0.00 84 1010.5
20260506111038 57 348 5.0 7.0 0.00 0.00 0.00 85 1010.3
20260506110536 57 344 11.0 14.0 0.00 0.00 0.00 84 1010.3
20260506110033 58 348 13.0 14.0 0.00 0.00 0.00 85 1010.1
20260506105529 58 330 2.0 6.0 0.00 0.00 0.00 86 1010.2
20260506105027 58 354 5.0 7.0 0.00 0.00 0.00 86 1009.9
20260506104525 58 340 5.0 6.0 0.00 0.00 0.00 86 1009.9
20260506104022 58 317 5.0 6.0 0.00 0.00 0.00 86 1009.6
20260506103519 58 18 4.0 7.0 0.00 0.00 0.00 87 1009.6
20260506103016 58 329 1.0 3.0 0.00 0.00 0.00 88 1009.6
20260506102515 58 341 4.0 6.0 0.00 0.00 0.00 89 1009.7
20260506102011 58 333 0.0 0.0 0.00 0.00 0.00 89 1009.7
20260506101508 58 6 7.0 8.0 0.00 0.00 0.00 89 1009.3
20260506101005 57 350 1.0 2.0 0.00 0.00 0.00 90 1009.3
20260506100503 57 6 7.0 8.0 0.00 0.00 0.00 90 1009.3
20260506100001 57 344 3.0 7.0 0.00 0.00 0.00 91 1009.3
20260506095459 57 3 8.0 9.0 0.00 0.00 0.00 92 1009.1
20260506094955 57 356 7.0 7.0 0.00 0.00 0.00 92 1009.1
20260506094453 57 348 6.0 7.0 0.00 0.00 0.00 92 1009.0
20260506093951 58 316 9.0 10.0 0.00 0.00 0.00 92 1009.0
20260506093449 58 350 6.0 8.0 0.00 0.00 0.00 92 1008.9
20260506092946 58 331 8.0 10.0 0.00 0.00 0.00 91 1009.1
20260506092444 58 325 8.0 10.0 0.00 0.00 0.00 91 1008.9
20260506091940 58 347 4.0 6.0 0.00 0.00 0.00 91 1009.2
20260506091439 59 317 9.0 10.0 0.00 0.00 0.00 91 1009.0
20260506090936 59 348 2.0 3.0 0.00 0.00 0.00 90 1009.0
20260506090433 59 344 7.0 8.0 0.00 0.00 0.00 90 1008.9
20260506085930 59 337 4.0 8.0 0.00 0.00 0.00 90 1008.9
20260506085427 60 333 5.0 7.0 0.00 0.00 0.00 89 1009.0
20260506084923 60 315 0.0 0.0 0.00 0.00 0.00 87 1008.6
20260506084420 61 331 0.0 0.0 0.00 0.00 0.00 87 1008.7
20260506083916 61 351 2.0 3.0 0.00 0.00 0.00 86 1008.4
20260506083414 61 340 2.0 3.0 0.00 0.00 0.00 85 1008.4
20260506082911 62 346 2.0 4.0 0.00 0.00 0.00 84 1008.4
20260506082408 62 325 0.0 0.0 0.00 0.00 0.00 84 1008.3
20260506081903 62 351 0.0 0.0 0.00 0.00 0.00 84 1008.2
20260506081402 62 16 2.0 3.0 0.00 0.00 0.00 84 1008.4
20260506080859 62 1 1.0 3.0 0.00 0.00 0.00 84 1008.3
20260506080355 62 24 1.0 2.0 0.00 0.00 0.00 84 1008.3
20260506073339 63 1 6.0 7.0 0.00 0.00 0.00 84 1008.5
20260506072836 63 342 4.0 6.0 0.00 0.00 0.00 84 1008.4
20260506072334 63 23 4.0 7.0 0.00 0.00 0.00 84 1008.5
20260506071831 63 341 6.0 8.0 0.00 0.00 0.00 84 1008.4
20260506071330 63 332 8.0 10.0 0.00 0.00 0.00 84 1008.4
20260506070826 63 353 2.0 6.0 0.00 0.00 0.00 84 1008.8
20260506070323 63 2 6.0 7.0 0.00 0.00 0.00 84 1009.0
20260506062300 64 5 2.0 3.0 0.00 0.00 0.00 83 1008.5
20260506061756 65 351 5.0 7.0 0.00 0.00 0.00 83 1008.3
20260506061253 65 348 4.0 7.0 0.00 0.00 0.00 83 1008.2
20260506060751 65 359 6.0 8.0 0.00 0.00 0.00 82 1008.2
20260506060249 65 11 7.0 9.0 0.00 0.00 0.00 82 1008.2
20260506051220 68 355 2.0 6.0 0.00 0.00 0.00 81 1008.2
20260506050719 69 345 6.0 7.0 0.00 0.00 0.00 80 1008.3
20260506050215 69 345 9.0 9.0 0.00 0.00 0.00 80 1007.9
20260506044707 69 341 4.0 7.0 0.00 0.00 0.00 80 1008.1
20260506044203 69 353 6.0 8.0 0.00 0.00 0.00 79 1007.9
20260506043701 70 342 7.0 8.0 0.00 0.00 0.00 79 1008.1
20260506043158 70 350 9.0 9.0 0.00 0.00 0.00 78 1007.7
20260506042657 70 334 8.0 9.0 0.00 0.00 0.00 78 1008.2
20260506042155 70 341 8.0 10.0 0.00 0.00 0.00 78 1007.9
20260506041653 71 7 8.0 10.0 0.00 0.00 0.00 77 1008.0
20260506041150 71 352 7.0 9.0 0.00 0.00 0.00 77 1007.7
20260506040647 71 15 7.0 9.0 0.00 0.00 0.00 77 1007.6
20260506040138 71 350 7.0 8.0 0.00 0.00 0.00 77 1007.8
20260506035636 72 318 4.0 7.0 0.00 0.00 0.00 76 1007.6
20260506035132 72 22 4.0 4.0 0.00 0.00 0.00 76 1007.6
20260506034629 72 343 2.0 4.0 0.00 0.00 0.00 76 1007.3
20260506034126 72 11 6.0 7.0 0.00 0.00 0.00 75 1007.1
20260506033623 72 323 4.0 6.0 0.00 0.00 0.00 76 1007.4
20260506033120 72 5 6.0 6.0 0.00 0.00 0.00 76 1007.1
20260506032618 72 351 5.0 6.0 0.00 0.00 0.00 76 1007.1
20260506032114 73 11 7.0 8.0 0.00 0.00 0.00 76 1007.2
20260506031611 73 10 6.0 7.0 0.00 0.00 0.00 76 1007.4
20260506031108 73 313 5.0 6.0 0.00 0.00 0.00 76 1007.4
20260506030607 73 320 6.0 7.0 0.00 0.00 0.00 75 1007.1
20260506030104 74 320 6.0 10.0 0.00 0.00 0.00 76 1007.1
20260506025601 75 316 7.0 8.0 0.00 0.00 0.00 75 1007.0
20260506025056 75 325 7.0 8.0 0.00 0.00 0.00 75 1006.5
20260506024554 77 314 7.0 9.0 0.00 0.00 0.00 78 1006.8
20260506024050 78 223 0.0 0.0 0.00 0.00 0.00 84 1006.4
20260506023546 78 232 0.0 0.0 0.00 0.00 0.00 85 1006.1
20260506023044 78 222 0.0 0.0 0.00 0.00 0.00 85 1006.0
20260506022541 78 199 0.0 0.0 0.00 0.00 0.00 85 1005.5
20260506022039 78 220 0.0 0.0 0.00 0.00 0.00 85 1005.4
20260506021536 78 189 0.0 0.0 0.00 0.00 0.00 84 1005.5
20260506021033 78 200 0.0 0.0 0.00 0.00 0.00 84 1005.2
20260506020531 78 198 0.0 0.0 0.00 0.00 0.00 84 1005.3
20260506020028 78 185 0.0 0.0 0.00 0.00 0.00 84 1005.0
20260506015525 78 184 0.0 0.0 0.00 0.00 0.00 84 1005.0
20260506015022 78 188 0.0 0.0 0.00 0.00 0.00 84 1005.0
20260506014519 78 198 0.0 0.0 0.00 0.00 0.00 84 1005.1
20260506014015 78 233 0.0 0.0 0.00 0.00 0.00 83 1005.1
20260506013513 78 235 0.0 0.0 0.00 0.00 0.00 83 1004.9
20260506013010 78 357 0.0 0.0 0.00 0.00 0.00 83 1004.7
20260506012506 79 206 0.0 0.0 0.00 0.00 0.00 83 1004.8
20260506012003 79 206 0.0 0.0 0.00 0.00 0.00 82 1004.4
20260506011501 79 142 4.0 4.0 0.00 0.00 0.00 82 1004.6
20260506010957 79 151 4.0 6.0 0.00 0.00 0.00 82 1004.2
20260506010456 79 167 0.0 0.0 0.00 0.00 0.00 82 1003.9
20260506005951 79 162 0.0 0.0 0.00 0.00 0.00 82 1004.1
20260506005449 79 208 5.0 9.0 0.00 0.00 0.00 82 1004.1
20260506004944 79 163 0.0 0.0 0.00 0.00 0.00 82 1004.1
20260506004443 80 162 3.0 6.0 0.00 0.00 0.00 81 1004.2
20260506003938 80 204 2.0 9.0 0.00 0.00 0.00 81 1004.3
20260506003435 80 144 6.0 7.0 0.00 0.00 0.00 81 1004.2
20260506002932 80 202 0.0 0.0 0.00 0.00 0.00 81 1004.2
20260506002428 81 190 2.0 9.0 0.00 0.00 0.00 80 1004.0
20260506001923 81 163 6.0 8.0 0.00 0.00 0.00 80 1004.1
20260506001421 81 160 3.0 4.0 0.00 0.00 0.00 80 1003.9
20260506000918 81 156 3.0 6.0 0.00 0.00 0.00 80 1003.8
20260506000416 81 167 4.0 6.0 0.00 0.00 0.00 80 1004.0
20260505235912 81 163 0.0 2.0 0.00 0.00 0.00 80 1003.9
20260505235410 81 170 1.0 4.0 0.00 0.00 0.00 80 1004.2
20260505234907 81 174 5.0 8.0 0.00 0.00 0.00 80 1003.9
20260505234404 81 171 6.0 8.0 0.00 0.00 0.00 79 1004.0
20260505233901 81 156 4.0 7.0 0.00 0.00 0.00 79 1004.2
20260505233359 82 207 9.0 11.0 0.00 0.00 0.00 79 1004.0
20260505232856 82 156 5.0 7.0 0.00 0.00 0.00 78 1003.8
20260505232354 82 192 5.0 7.0 0.00 0.00 0.00 78 1003.8
20260505231850 82 185 6.0 7.0 0.00 0.00 0.00 78 1003.8
20260505231348 83 158 3.0 9.0 0.00 0.00 0.00 78 1004.0
20260505230846 83 158 4.0 7.0 0.00 0.00 0.00 77 1003.7
20260505230343 83 153 8.0 13.0 0.00 0.00 0.00 77 1003.5
20260505225839 83 140 5.0 7.0 0.00 0.00 0.00 77 1003.6
20260505225337 83 193 0.0 0.0 0.00 0.00 0.00 77 1003.5
20260505224831 84 185 6.0 7.0 0.00 0.00 0.00 77 1003.5
20260505224330 84 178 3.0 3.0 0.00 0.00 0.00 76 1003.4
20260505223826 85 159 0.0 0.0 0.00 0.00 0.00 75 1003.5
20260505223323 85 187 5.0 6.0 0.00 0.00 0.00 74 1003.3
20260505222819 85 198 4.0 6.0 0.00 0.00 0.00 73 1003.7
20260505222315 85 176 3.0 6.0 0.00 0.00 0.00 73 1003.7
20260505221813 85 197 5.0 8.0 0.00 0.00 0.00 73 1003.6
20260505221309 85 196 4.0 6.0 0.00 0.00 0.00 74 1003.5
20260505220806 85 194 6.0 9.0 0.00 0.00 0.00 73 1003.4
20260505220303 86 157 8.0 9.0 0.00 0.00 0.00 72 1003.6
20260505215802 86 186 5.0 6.0 0.00 0.00 0.00 71 1003.7
20260505215259 86 185 1.0 3.0 0.00 0.00 0.00 72 1003.6